Weather History for KSUA - March, 2013

Change the Weather History Date:

Friday, March 29, 2013

  Actual Average Record
Temperature  
Mean Temperature 62 °F -  
Max Temperature 71 °F 80 °F 89 °F (1949)
Min Temperature 53 °F 63 °F 35 °F (2004)
Degree Days  
Heating Degree Days 3    
Growing Degree Days 12 (Base 50)    
Moisture  
Dew Point 45 °F    
Average Humidity 57    
Maximum Humidity 77    
Minimum Humidity 35    
Precipitation  
Precipitation 0.00 in - - ()
Sea Level Pressure  
Sea Level Pressure 30.27 in    
Wind  
Wind Speed 5 mph (North)    
Max Wind Speed 14 mph    
Max Gust Speed 20 mph    
Visibility 10 miles    
Events      
Averages and records for this station are not official NWS values.
T = Trace of Precipitation, MM = Missing Value Source: NWS Daily Summary

Daily Weather History Graph

Daily Weather History Graph

Search for Another Location

Airport or City:

Trip Planner

Search our weather history database for the weather conditions in past years. The results will help you decide how hot, cold, wet, or windy it might be!

Date:

Astronomy

Mar. 29, 2013 Rise Set
Actual Time 7:14 AM EDT 7:36 PM EDT
Civil Twilight 6:51 AM EDT 8:00 PM EDT
Nautical Twilight 6:23 AM EDT 8:27 PM EDT
Astronomical Twilight 5:56 AM EDT 8:55 PM EDT
Moon 10:16 PM EDT 8:37 AM EDT
Length of Visible Light 13h 09m
Length of Day
12h 22m
Waning Gibbous, 93% of the Moon is Illuminated
Mar 29
Waning Gibbous
Apr 3
Last Quarter
Apr 10
New
Apr 18
First Quarter
Apr 25
Full

Hourly Weather History & Observations

Time (EDT) Temp. Dew Point Humidity Pressure Visibility Wind Dir Wind Speed Gust Speed Precip Events Conditions
12:15 AM 62.6 °F 41.0 °F 45% 30.28 in 10.0 mi North 5.8 mph - N/A   Clear
12:35 AM 62.6 °F 39.2 °F 42% 30.28 in 10.0 mi North 4.6 mph - N/A   Clear
12:55 AM 62.6 °F 39.2 °F 42% 30.27 in 10.0 mi North 3.5 mph - N/A   Clear
1:15 AM 60.8 °F 39.2 °F 45% 30.27 in 10.0 mi North 3.5 mph - N/A   Clear
1:35 AM 55.4 °F 42.8 °F 63% 30.27 in 10.0 mi Calm Calm - N/A   Clear
1:55 AM 55.4 °F 42.8 °F 63% 30.27 in 10.0 mi NW 3.5 mph - N/A   Clear
2:15 AM 55.4 °F 46.4 °F 72% 30.27 in 10.0 mi NW 5.8 mph - N/A   Clear
2:35 AM 55.4 °F 48.2 °F 77% 30.26 in 10.0 mi NW 4.6 mph - N/A   Clear
2:55 AM 55.4 °F 48.2 °F 77% 30.26 in 10.0 mi NW 4.6 mph - N/A   Clear
3:15 AM 55.4 °F 46.4 °F 72% 30.26 in 10.0 mi NW 4.6 mph - N/A   Clear
3:35 AM 55.4 °F 46.4 °F 72% 30.25 in 10.0 mi NW 4.6 mph - N/A   Clear
3:55 AM 55.4 °F 46.4 °F 72% 30.25 in 10.0 mi NW 4.6 mph - N/A   Clear
4:15 AM 55.4 °F 44.6 °F 67% 30.25 in 10.0 mi NW 4.6 mph - N/A   Clear
4:35 AM 53.6 °F 46.4 °F 77% 30.25 in 10.0 mi NW 4.6 mph - N/A   Clear
4:55 AM 55.4 °F 44.6 °F 67% 30.25 in 10.0 mi NW 4.6 mph - N/A   Clear
5:15 AM 53.6 °F 44.6 °F 72% 30.25 in 10.0 mi NW 4.6 mph - N/A   Clear
5:35 AM 53.6 °F 44.6 °F 72% 30.25 in 10.0 mi NW 4.6 mph - N/A   Clear
5:55 AM 53.6 °F 46.4 °F 77% 30.25 in 10.0 mi NW 6.9 mph - N/A   Clear
6:15 AM 53.6 °F 46.4 °F 77% 30.26 in 10.0 mi NW 4.6 mph - N/A   Clear
6:47 AM 55.4 °F 46.4 °F 72% 30.26 in 7.0 mi Calm Calm - N/A   Scattered Clouds
7:47 AM 55.4 °F 46.4 °F 72% 30.29 in 7.0 mi NW 8.1 mph - N/A   Scattered Clouds
9:47 AM 66.2 °F 46.4 °F 49% 30.31 in 7.0 mi NW 8.1 mph - N/A   Scattered Clouds
10:47 AM 69.8 °F 41.0 °F 35% 30.32 in 7.0 mi North 11.5 mph - N/A   Scattered Clouds
11:47 AM 71.6 °F 42.8 °F 35% 30.33 in 7.0 mi North 13.8 mph - N/A   Scattered Clouds
12:47 PM 71.6 °F 42.8 °F 35% 30.31 in 7.0 mi North 12.7 mph - N/A   Scattered Clouds
1:50 PM 71.6 °F 42.8 °F 35% 30.29 in 10.0 mi NE 11.5 mph 18.4 mph N/A   Scattered Clouds
2:47 PM 71.6 °F 42.8 °F 35% 30.27 in 10.0 mi NE 11.5 mph 19.6 mph N/A   Scattered Clouds
3:47 PM 71.6 °F 44.6 °F 38% 30.25 in 7.0 mi NNE 11.5 mph 17.3 mph N/A   Scattered Clouds
4:47 PM 71.6 °F 44.6 °F 38% 30.25 in 10.0 mi NNE 10.4 mph 18.4 mph N/A   Scattered Clouds
5:47 PM 69.8 °F 44.6 °F 40% 30.24 in 10.0 mi NNE 10.4 mph 16.1 mph N/A   Partly Cloudy
6:47 PM 68.0 °F 46.4 °F 46% 30.24 in 10.0 mi NNE 9.2 mph - N/A   Partly Cloudy
8:15 PM 64.4 °F 46.4 °F 52% 30.25 in 10.0 mi NE 4.6 mph - N/A   Clear
8:35 PM 64.4 °F 46.4 °F 52% 30.26 in 10.0 mi ENE 4.6 mph - N/A   Clear
8:55 PM 62.6 °F 46.4 °F 55% 30.26 in 10.0 mi Calm Calm - N/A   Clear
9:15 PM 62.6 °F 46.4 °F 55% 30.26 in 10.0 mi ENE 3.5 mph - N/A   Clear
9:35 PM 62.6 °F 46.4 °F 55% 30.27 in 10.0 mi ENE 3.5 mph - N/A   Clear
9:55 PM 62.6 °F 46.4 °F 55% 30.27 in 10.0 mi Calm Calm - N/A   Clear
10:15 PM 60.8 °F 46.4 °F 59% 30.27 in 10.0 mi East 3.5 mph - N/A   Clear
10:35 PM 62.6 °F 46.4 °F 55% 30.27 in 10.0 mi East 3.5 mph - N/A   Clear
10:55 PM 60.8 °F 46.4 °F 59% 30.28 in 10.0 mi Calm Calm - N/A   Clear
11:15 PM 60.8 °F 46.4 °F 59% 30.28 in 10.0 mi Calm Calm - N/A   Clear
11:35 PM 60.8 °F 46.4 °F 59% 30.28 in 10.0 mi Calm Calm - N/A   Clear
11:55 PM 59.0 °F 46.4 °F 63% 30.27 in 10.0 mi Calm Calm - N/A   Clear